Regional Weather Roundup
Issued by NWS

Home | Current Version | Previous Version | Graphics & Text | Print | Product List | Glossary On
Versions: 1 2 3 4 5 6 7 8 9 10 11 12 13 14 15 16 17 18 19 20 21 22 23 24 25 26 27 28 29 30 31 32 33 34 35 36 37 38 39 40 41 42 43 44 45 46 47 48 49 50
000
ASUS43 KMKX 281000
RWRWI

WISCONSIN REGIONAL WEATHER ROUNDUP
NATIONAL WEATHER SERVICE MILWAUKEE/SULLIVAN WI
500 AM CDT WED JUN 28 2017

NOTE: "FAIR" INDICATES FEW OR NO CLOUDS BELOW 12,000 FEET WITH NO
SIGNIFICANT WEATHER AND/OR OBSTRUCTIONS TO VISIBILITY.

WIZ001-002-006>008-014>016-023>028-281100-
NORTHWEST WISCONSIN

CITY           SKY/WX    TMP DP  RH WIND       PRES   REMARKS
SUPERIOR ARPT  NOT AVBL
ASHLAND        CLOUDY    54  46  74 CALM      29.77F
HAYWARD        CLOUDY    59  47  64 SE5       29.76F
SIREN          CLOUDY    64  47  54 S10G20    29.71F
CUMBERLAND     CLOUDY    55  46  71 SE6       29.75F
RICE LAKE      CLOUDY    60  48  65 E9        29.76F
CHETEK         CLOUDY    59  49  70 SE6       29.77F
LADYSMITH      CLOUDY    59  47  65 SE8       29.81F
EAU CLAIRE     NOT AVBL
MENOMONIE      CLOUDY    61  49  64 E6        29.75F
NEW RICHMOND   CLOUDY    64  48  56 SE9       29.72S
OSCEOLA        CLOUDY    64  49  59 SE10      29.73F
$$

WIZ003>005-009-010-017-018-281100-
NORTH CENTRAL WISCONSIN

CITY           SKY/WX    TMP DP  RH WIND       PRES   REMARKS
MANITOWISH WTR CLEAR     57  47  69 S8        29.85R
ARBOR VITAE    CLEAR     57  47  69 S8        29.85R
WOODRUFF       CLEAR     57  47  69 S8        29.85R
RHINELANDER    CLEAR     57  46  66 S7        29.88R
EAGLE RIVER    CLEAR     52  45  77 CALM      29.88R
LAND O LAKES   CLEAR     53  47  80 S3        29.90R
PHILLIPS       CLOUDY    56  47  72 S10G16    29.82F
TOMAHAWK       NOT AVBL
MEDFORD        MOCLDY    53  47  79 S9        29.85S
MERRILL        CLOUDY    48  47  95 CALM      29.88S
$$

WIZ029-030-035-036-043>047-281100-
CENTRAL WISCONSIN

CITY           SKY/WX    TMP DP  RH WIND       PRES   REMARKS
WAUSAU           N/A    N/A N/A N/A MISG      29.87S
MOSINEE        CLOUDY    52  46  82 S7        29.89S HAZE
MARSHFIELD     MOCLDY    56  48  74 S8        29.85F
STEVENS POINT  CLOUDY    55  46  69 S8        29.89S
WAUPACA        CLOUDY    51  50  95 CALM      29.92S
WAUTOMA        CLOUDY    48  46  93 CALM      29.91F
WISC RAPIDS    CLOUDY    58  48  69 SE6       29.88F
CAMP DOUGLAS   NOT AVBL
$$

WIZ011>013-019>022-031-037>040-048>050-281100-
NORTHEAST WISCONSIN

CITY           SKY/WX    TMP DP  RH WIND       PRES   REMARKS
ANTIGO         CLEAR     51  47  86 S6        29.90S
SHAWANO        CLEAR     55  50  82 S3        29.90R
OCONTO         CLEAR     54  51  88 SW3       29.91R
STURGEON BAY     N/A     57  49  74 S10       29.94
GREEN BAY      CLEAR     56  51  84 S6        29.92R
MANITOWOC      NOT AVBL
APPLETON       CLEAR     57  45  62 S9        29.91S
CLINTONVILLE   CLEAR     52  46  82 S5        29.91S
OSHKOSH        PTCLDY    53  48  83 S8        29.93S
$$

WIZ032>034-041-042-053>061-281100-
SOUTHWEST WISCONSIN

CITY           SKY/WX    TMP DP  RH WIND       PRES   REMARKS
LA CROSSE      CLOUDY    71  51  49 S14       29.77F
SPARTA         CLOUDY    64  49  58 S12G17    29.82F
VIROQUA        CLOUDY    63  50  63 S12G17    29.83F
BOSCOBEL       CLOUDY    66  50  56 VRB6      29.83F
PRAIRIE DU CHI CLOUDY    68  48  49 SE6       29.81F
PLATTEVILLE    CLOUDY    62  52  69 SE13      29.87F
$$

WIZ056-057-062-063-064-067-068-281100-
SOUTH CENTRAL WISCONSIN

CITY           SKY/WX    TMP DP  RH WIND       PRES   REMARKS
REEDSBURG      CLOUDY    61  49  64 S8        29.87F
BARABOO/DELLS  CLOUDY    59  47  65 S9        29.89F
LONE ROCK      NOT AVBL
MINERAL POINT  CLOUDY    61  50  67 SE13      29.88F
MADISON        CLOUDY    62  49  62 S10       29.91S
MIDDLETON      CLOUDY    62  49  61 S10       29.92F
WATERTOWN      NOT AVBL
MONROE         CLOUDY    61  46  59 S15       29.92F
JANESVILLE     MOCLDY    61  46  59 S7        29.94S
$$

WIZ051-052-058>065-066-070>072-281100-
SOUTHEAST WISCONSIN

CITY           SKY/WX    TMP DP  RH WIND       PRES   REMARKS
MILWAUKEE      PTCLDY    61  48  62 S8        29.98R
WAUKESHA       CLOUDY    55  45  67 S7        29.98R
MILWAUKEE/TIMM CLEAR     57  43  58 S6        29.98R
RACINE         CLEAR     59  47  64 S8        30.00R
KENOSHA        CLEAR     58  48  69 S8        29.99R
FOND DU LAC    CLEAR     57  46  66 S7        29.94R
SHEBOYGAN      CLEAR     51  50  96 CALM      29.95S
WEST BEND      CLEAR     54  48  82 S5        29.96S
JUNEAU         PTCLDY    56  47  69 S8        29.96R
$$

LSZ147-162-281100-
LAKE SUPERIOR

STATION/POSITION TIME  TEMP    WIND        PRES    WAVE
                       AIR SEA DIR/SP/G            HT/PER
                 (UTC) (F)     (DEG/KT/KT) (MB)    (FT/S)
W MID LAKE BUOY  0850   46 39  190/ 10/ 10 1008.4F   1
DEVILS ISLAND    0900   61     170/ 10/ 15 1007.5R
SAXON HARBOR     0930   62     180/  5/ 11 1008.5R
$$

LMZ867-665-643>646-281100-
LAKE MICHIGAN

STATION/POSITION TIME  TEMP    WIND        PRES    WAVE
                       AIR SEA DIR/SP/G            HT/PER
                 (UTC) (F)     (DEG/KT/KT) (MB)    (FT/S)
CHAMBERS ISLAND  0940   62     170/  4/  8 1012.2S
S GREEN BAY BUOY 0930   65     190/ 14/ 17 1012.4R
N MID LAKE BUOY  0850   58 56  190/ 12/ 14 1013.6F   3/ 5
NORTHPORT PIER   0940   57     160/  3/  5 1012.5S
KEWAUNEE LAKESHO 0930   53     180/  6/  8 1013.0S
SHEBOYGAN LAKESH 0900   58     190/  9/ 10 1014.1R
PORT WASHINGTON  0940   58     210/  4/ 10 1015.6R
ATWATER BUOY     0809   60 56  170/  8/ 10 1014.8F
MILWAUKEE LAKESH 0930   61     190/  8/  9   N/A
S MID LAKE BUOY  0850   63 61  180/ 14/ 16 1015.7F   1/ 3
KENOSHA   LAKESH 0900   60     180/  6/  9 1015.2
$$

TC  - TEMPERATURE IN CELSIUS
VSB - VISIBILITY IN STATUTE MILES
WCI - WIND CHILL INDEX
HX  - HEAT INDEX





USA.gov is the U.S. government's official web portal to all federal, state and local government web resources and services.